FWV009 LPPT-KLAX

Flight info

Callsign FWV009
Flight time N/A
Altitude 36000
Route ELNUB DCT DETOX/M085F360 DCT 44N020W 4630N03000W 4930N04000W 4930N05000W DCT IBERG/N0486F360 DCT SATIP/N0482F380 Q907 MIILS DCT ROSVO DCT SSM/N0496F400 J140 DLH J32 ABR J158 DDY J107 BLD DCT HAKMN ANJLL4
Aircraft A359/H-SDE2E3GHIJ3J4J5LM1ORWXY/LB1D1

Departure

Time 2026-04-29 11:05
Airport Lisbon Humberto Delgado Airport (LPPT)

Arrival

Time N/A
Airport Los Angeles International Airport (KLAX)
Time Latitude Longitude Altitude Speed Heading
2026-04-29 10:36 38.76782 -9.13697 359 ft 0 kts 78°
2026-04-29 10:51 38.76781 -9.13703 351 ft 4 kts 77°
2026-04-29 10:51 38.76774 -9.13736 360 ft 4 kts 70°
2026-04-29 10:52 38.76763 -9.13768 358 ft 4 kts 58°
2026-04-29 10:52 38.76746 -9.13793 361 ft 4 kts 30°
2026-04-29 10:52 38.76728 -9.13800 361 ft 1 kts 348°
2026-04-29 10:52 38.76726 -9.13804 361 ft 1 kts 348°
2026-04-29 10:53 38.76724 -9.13808 361 ft 0 kts 348°
2026-04-29 10:53 38.76722 -9.13811 359 ft 1 kts 348°
2026-04-29 10:53 38.76720 -9.13815 359 ft 0 kts 348°
2026-04-29 10:56 38.76728 -9.13816 358 ft 5 kts 353°
2026-04-29 10:56 38.76787 -9.13819 360 ft 9 kts 356°
2026-04-29 10:56 38.76849 -9.13831 358 ft 10 kts 347°
2026-04-29 10:57 38.76924 -9.13853 361 ft 11 kts 347°
2026-04-29 10:57 38.77002 -9.13876 363 ft 12 kts 347°
2026-04-29 10:57 38.77090 -9.13899 361 ft 14 kts 351°
2026-04-29 10:57 38.77180 -9.13874 367 ft 14 kts 23°
2026-04-29 10:58 38.77268 -9.13826 367 ft 14 kts 23°
2026-04-29 10:58 38.77383 -9.13764 366 ft 20 kts 22°
2026-04-29 10:58 38.77520 -9.13690 369 ft 21 kts 22°
2026-04-29 10:58 38.77665 -9.13613 370 ft 23 kts 22°
2026-04-29 10:59 38.77817 -9.13533 368 ft 21 kts 19°
2026-04-29 10:59 38.77951 -9.13546 369 ft 18 kts 348°
2026-04-29 10:59 38.78071 -9.13579 374 ft 18 kts 348°
2026-04-29 10:59 38.78200 -9.13614 374 ft 19 kts 348°
2026-04-29 11:00 38.78338 -9.13651 377 ft 20 kts 348°
2026-04-29 11:00 38.78462 -9.13684 384 ft 17 kts 348°
2026-04-29 11:00 38.78573 -9.13702 387 ft 16 kts 13°
2026-04-29 11:00 38.78654 -9.13569 377 ft 22 kts 41°
2026-04-29 11:01 38.78796 -9.13486 370 ft 22 kts 23°
2026-04-29 11:01 38.78939 -9.13409 365 ft 20 kts 22°
2026-04-29 11:01 38.79078 -9.13334 362 ft 23 kts 22°
2026-04-29 11:01 38.79223 -9.13258 363 ft 22 kts 22°
2026-04-29 11:02 38.79362 -9.13183 365 ft 21 kts 22°
2026-04-29 11:02 38.79450 -9.13137 366 ft 19 kts 23°
2026-04-29 11:02 38.79561 -9.13077 373 ft 16 kts 22°
2026-04-29 11:02 38.79696 -9.13006 372 ft 16 kts 22°
2026-04-29 11:03 38.79775 -9.12911 366 ft 18 kts 88°
2026-04-29 11:03 38.79748 -9.12816 367 ft 16 kts 115°
2026-04-29 11:03 38.79701 -9.12760 364 ft 6 kts 180°
2026-04-29 11:03 38.79671 -9.12772 363 ft 0 kts 201°
2026-04-29 11:04 38.79646 -9.12784 365 ft 20 kts 201°
2026-04-29 11:04 38.79324 -9.12957 365 ft 78 kts 202°
2026-04-29 11:04 38.78659 -9.13313 374 ft 127 kts 202°
2026-04-29 11:05 38.77700 -9.13828 376 ft 170 kts 206°
2026-04-29 11:05 38.76648 -9.14387 1091 ft 155 kts 204°
2026-04-29 11:05 38.75641 -9.14923 1559 ft 165 kts 206°
2026-04-29 11:05 38.74522 -9.15536 1715 ft 185 kts 206°
2026-04-29 11:06 38.73272 -9.16205 1926 ft 205 kts 205°
2026-04-29 11:06 38.71889 -9.16945 2166 ft 226 kts 204°
2026-04-29 11:06 38.70405 -9.17734 2566 ft 239 kts 204°
2026-04-29 11:06 38.68843 -9.18565 3110 ft 246 kts 203°
2026-04-29 11:07 38.67263 -9.19497 3723 ft 247 kts 211°
2026-04-29 11:07 38.65988 -9.20925 4310 ft 250 kts 234°
2026-04-29 11:07 38.65292 -9.22950 4969 ft 252 kts 258°
2026-04-29 11:07 38.65343 -9.25203 5562 ft 259 kts 282°
2026-04-29 11:08 38.65958 -9.27396 6137 ft 264 kts 291°
2026-04-29 11:08 38.66697 -9.29557 6761 ft 266 kts 291°
2026-04-29 11:08 38.67439 -9.31740 7385 ft 268 kts 290°
2026-04-29 11:08 38.68146 -9.33958 8021 ft 270 kts 286°
2026-04-29 11:09 38.68698 -9.36258 8682 ft 271 kts 283°
2026-04-29 11:09 38.69201 -9.38596 9328 ft 274 kts 282°
2026-04-29 11:09 38.69702 -9.40958 9985 ft 276 kts 282°
2026-04-29 11:09 38.70216 -9.43384 10356 ft 289 kts 282°
2026-04-29 11:10 38.70755 -9.45937 10654 ft 305 kts 282°
2026-04-29 11:10 38.71325 -9.48631 10963 ft 320 kts 283°
2026-04-29 11:10 38.71914 -9.51408 11240 ft 335 kts 284°
2026-04-29 11:10 38.72538 -9.54343 11539 ft 347 kts 284°
2026-04-29 11:11 38.73209 -9.57347 12033 ft 354 kts 288°
2026-04-29 11:11 38.74087 -9.60331 12507 ft 361 kts 290°
2026-04-29 11:11 38.75034 -9.63339 13126 ft 364 kts 291°
2026-04-29 11:11 38.75998 -9.66349 13730 ft 367 kts 291°
2026-04-29 11:12 38.76979 -9.69389 14226 ft 370 kts 291°
2026-04-29 11:12 38.77966 -9.72437 14801 ft 371 kts 291°
2026-04-29 11:12 38.78959 -9.75500 15311 ft 374 kts 291°
2026-04-29 11:12 38.79962 -9.78593 15845 ft 377 kts 291°
2026-04-29 11:13 38.80972 -9.81709 16350 ft 380 kts 291°
2026-04-29 11:13 38.81987 -9.84847 16897 ft 381 kts 292°
2026-04-29 11:13 38.83006 -9.87994 17508 ft 382 kts 292°
2026-04-29 11:13 38.84026 -9.91149 18048 ft 385 kts 292°
2026-04-29 11:14 38.85042 -9.94292 18521 ft 387 kts 292°
2026-04-29 11:14 38.86088 -9.97535 19038 ft 389 kts 291°
2026-04-29 11:14 38.87109 -10.00703 19538 ft 390 kts 291°
2026-04-29 11:14 38.88145 -10.03923 20068 ft 391 kts 291°
2026-04-29 11:15 38.89185 -10.07157 20586 ft 393 kts 291°
2026-04-29 11:15 38.90227 -10.10401 21128 ft 394 kts 291°
2026-04-29 11:15 38.91273 -10.13663 21669 ft 396 kts 291°
2026-04-29 11:15 38.92333 -10.16974 21858 ft 407 kts 292°
2026-04-29 11:16 38.93418 -10.20364 22165 ft 413 kts 292°
2026-04-29 11:16 38.94506 -10.23772 22764 ft 411 kts 292°
2026-04-29 11:16 38.95590 -10.27165 23335 ft 412 kts 292°
2026-04-29 11:16 38.96677 -10.30573 23741 ft 414 kts 292°
2026-04-29 11:17 38.97772 -10.34009 24137 ft 416 kts 292°
2026-04-29 11:17 38.98871 -10.37465 24542 ft 418 kts 291°
2026-04-29 11:17 38.99970 -10.40926 24967 ft 419 kts 291°
2026-04-29 11:17 39.01073 -10.44403 25362 ft 421 kts 291°
2026-04-29 11:18 39.02180 -10.47895 25762 ft 422 kts 291°
2026-04-29 11:18 39.03274 -10.51352 26160 ft 423 kts 291°
2026-04-29 11:18 39.04384 -10.54865 26552 ft 425 kts 291°
2026-04-29 11:18 39.05502 -10.58406 26935 ft 426 kts 291°
2026-04-29 11:19 39.06613 -10.61931 27414 ft 426 kts 291°
2026-04-29 11:19 39.07741 -10.65463 27829 ft 427 kts 292°
2026-04-29 11:19 39.09085 -10.68884 28202 ft 430 kts 298°
2026-04-29 11:19 39.10592 -10.72248 28322 ft 438 kts 300°
2026-04-29 11:20 39.12178 -10.75617 28609 ft 441 kts 301°
2026-04-29 11:20 39.13790 -10.78973 29044 ft 441 kts 301°
2026-04-29 11:20 39.15405 -10.82329 29445 ft 441 kts 301°
2026-04-29 11:20 39.17019 -10.85697 29810 ft 442 kts 300°
2026-04-29 11:21 39.18628 -10.89078 30097 ft 444 kts 300°
2026-04-29 11:21 39.20241 -10.92487 30314 ft 446 kts 300°
2026-04-29 11:21 39.21836 -10.95873 30527 ft 448 kts 300°
2026-04-29 11:21 39.23470 -10.99350 30806 ft 449 kts 300°
2026-04-29 11:22 39.25070 -11.02759 31021 ft 450 kts 300°
2026-04-29 11:22 39.26693 -11.06223 31235 ft 452 kts 300°
2026-04-29 11:22 39.28325 -11.09710 31434 ft 455 kts 300°
2026-04-29 11:23 39.31633 -11.16786 31691 ft 461 kts 300°
2026-04-29 11:23 39.33286 -11.20326 32067 ft 459 kts 300°
2026-04-29 11:23 39.34928 -11.23846 32379 ft 457 kts 300°
2026-04-29 11:23 39.36571 -11.27371 32652 ft 457 kts 300°
2026-04-29 11:24 39.38210 -11.30895 32913 ft 457 kts 300°
2026-04-29 11:24 39.39845 -11.34413 33226 ft 454 kts 300°
2026-04-29 11:24 39.41443 -11.37855 33597 ft 451 kts 300°
2026-04-29 11:24 39.43056 -11.41333 33845 ft 451 kts 300°
2026-04-29 11:25 39.44669 -11.44815 34034 ft 451 kts 299°
2026-04-29 11:25 39.46281 -11.48301 34207 ft 451 kts 300°
2026-04-29 11:25 39.47905 -11.51816 34146 ft 458 kts 300°
2026-04-29 11:26 39.52817 -11.62468 34648 ft 458 kts 300°
2026-04-29 11:26 39.54444 -11.66003 34824 ft 458 kts 300°
2026-04-29 11:26 39.56077 -11.69557 34978 ft 458 kts 300°
2026-04-29 11:27 39.57704 -11.73101 35121 ft 458 kts 300°
2026-04-29 11:27 39.59330 -11.76647 35283 ft 458 kts 300°
2026-04-29 11:27 39.60956 -11.80198 35423 ft 458 kts 300°
2026-04-29 11:27 39.62584 -11.83756 35566 ft 458 kts 299°
2026-04-29 11:28 39.64207 -11.87307 35703 ft 458 kts 299°
2026-04-29 11:28 39.65833 -11.90871 35765 ft 460 kts 300°
2026-04-29 11:28 39.69083 -11.98004 35851 ft 464 kts 300°
2026-04-29 11:29 39.72386 -12.05269 35837 ft 467 kts 300°
2026-04-29 11:29 39.75683 -12.12536 35845 ft 466 kts 300°
2026-04-29 11:30 39.78972 -12.19803 35848 ft 466 kts 300°
2026-04-29 11:30 39.82253 -12.27070 35852 ft 466 kts 300°
2026-04-29 11:31 39.85534 -12.34356 35843 ft 467 kts 300°
2026-04-29 11:31 39.88820 -12.41670 35833 ft 468 kts 300°
2026-04-29 11:32 39.92104 -12.48994 35843 ft 468 kts 300°
2026-04-29 11:32 39.95380 -12.56319 35843 ft 468 kts 300°
2026-04-29 11:33 39.98630 -12.63604 35842 ft 468 kts 300°
2026-04-29 11:33 40.01906 -12.70964 35841 ft 468 kts 300°
2026-04-29 11:34 40.05170 -12.78314 35832 ft 468 kts 300°
2026-04-29 11:34 40.08429 -12.85669 35843 ft 467 kts 299°
2026-04-29 11:35 40.11655 -12.92970 35845 ft 467 kts 299°
2026-04-29 11:35 40.14900 -13.00329 35845 ft 467 kts 299°
2026-04-29 11:36 40.18140 -13.07697 35847 ft 467 kts 300°
2026-04-29 11:36 40.21384 -13.15089 35838 ft 468 kts 300°
2026-04-29 11:37 40.24603 -13.22442 35846 ft 468 kts 300°
2026-04-29 11:37 40.27832 -13.29836 35845 ft 467 kts 299°
2026-04-29 11:38 40.31058 -13.37241 35848 ft 467 kts 299°
2026-04-29 11:38 40.34278 -13.44652 35848 ft 467 kts 299°
2026-04-29 11:39 40.37494 -13.52071 35847 ft 468 kts 300°
2026-04-29 11:39 40.40679 -13.59433 35854 ft 467 kts 300°
2026-04-29 11:40 40.43881 -13.66855 35853 ft 467 kts 299°
2026-04-29 11:40 40.47097 -13.74329 35856 ft 467 kts 299°
2026-04-29 11:41 40.50271 -13.81720 35856 ft 467 kts 299°
2026-04-29 11:41 40.53463 -13.89173 35858 ft 467 kts 299°
2026-04-29 11:42 40.56648 -13.96629 35865 ft 467 kts 299°
2026-04-29 11:42 40.59820 -14.04072 35864 ft 466 kts 299°
2026-04-29 11:43 40.62973 -14.11488 35864 ft 466 kts 299°
2026-04-29 11:43 40.66137 -14.18948 35867 ft 466 kts 299°
2026-04-29 11:44 40.69295 -14.26413 35868 ft 466 kts 299°
2026-04-29 11:44 40.72453 -14.33897 35870 ft 467 kts 299°
2026-04-29 11:45 40.75586 -14.41339 35875 ft 467 kts 299°
2026-04-29 11:45 40.78730 -14.48827 35878 ft 467 kts 299°
2026-04-29 11:46 40.81869 -14.56320 35878 ft 467 kts 299°
2026-04-29 11:46 40.85005 -14.63824 35883 ft 466 kts 299°
2026-04-29 11:47 40.88141 -14.71348 35881 ft 468 kts 299°
2026-04-29 11:47 40.91283 -14.78907 35886 ft 469 kts 299°
2026-04-29 11:48 40.94418 -14.86466 35884 ft 469 kts 299°
2026-04-29 11:48 40.97552 -14.94042 35880 ft 469 kts 299°
2026-04-29 11:49 41.00980 -15.01285 35892 ft 468 kts 309°
2026-04-29 11:49 41.05135 -15.07947 35892 ft 470 kts 310°
2026-04-29 11:50 41.09408 -15.14519 35892 ft 470 kts 311°
2026-04-29 11:50 41.13688 -15.21078 35894 ft 470 kts 310°
2026-04-29 11:51 41.17953 -15.27657 35899 ft 470 kts 310°
2026-04-29 11:51 41.22220 -15.34270 35895 ft 471 kts 310°
2026-04-29 11:52 41.25759 -15.39769 35904 ft 471 kts 310°
2026-04-29 11:52 41.30015 -15.46395 35902 ft 469 kts 310°
2026-04-29 11:53 41.34943 -15.54085 35911 ft 471 kts 311°
2026-04-29 11:53 41.38500 -15.59649 35907 ft 471 kts 310°
2026-04-29 11:54 41.42734 -15.66280 35906 ft 475 kts 310°
2026-04-29 11:54 41.47021 -15.73014 35911 ft 472 kts 310°
2026-04-29 11:55 41.51236 -15.79649 35916 ft 472 kts 310°
2026-04-29 11:55 41.55476 -15.86338 35920 ft 472 kts 311°
2026-04-29 11:56 41.59712 -15.93034 35922 ft 472 kts 311°
2026-04-29 11:56 41.63953 -15.99750 35903 ft 472 kts 311°
2026-04-29 11:57 41.68190 -16.06478 35923 ft 474 kts 310°
2026-04-29 11:57 41.72427 -16.13225 35928 ft 472 kts 310°
2026-04-29 11:58 41.76654 -16.19969 35928 ft 472 kts 311°
2026-04-29 11:58 41.80848 -16.26674 35930 ft 470 kts 311°
2026-04-29 11:59 41.85054 -16.33414 35932 ft 472 kts 311°
2026-04-29 11:59 41.89267 -16.40180 35932 ft 472 kts 310°
2026-04-29 12:00 41.93482 -16.46962 35939 ft 472 kts 310°
2026-04-29 12:00 41.97687 -16.53748 35938 ft 472 kts 311°
2026-04-29 12:01 42.01885 -16.60536 35942 ft 472 kts 311°
2026-04-29 12:01 42.06049 -16.67285 35941 ft 471 kts 311°
2026-04-29 12:02 42.10230 -16.74074 35940 ft 472 kts 310°
2026-04-29 12:02 42.14425 -16.80903 35944 ft 472 kts 310°
2026-04-29 12:03 42.18607 -16.87727 35950 ft 473 kts 310°
2026-04-29 12:03 42.22798 -16.94582 35948 ft 473 kts 311°
2026-04-29 12:04 42.26973 -17.01427 35949 ft 473 kts 310°
2026-04-29 12:04 42.31146 -17.08282 35966 ft 472 kts 310°
2026-04-29 12:05 42.35312 -17.15142 35953 ft 471 kts 310°
2026-04-29 12:05 42.39452 -17.21977 35954 ft 472 kts 310°
2026-04-29 12:06 42.43616 -17.28866 35955 ft 473 kts 310°
2026-04-29 12:06 42.47789 -17.35785 35956 ft 474 kts 310°
2026-04-29 12:07 42.51949 -17.42700 35951 ft 472 kts 310°
2026-04-29 12:07 42.56103 -17.49620 35965 ft 472 kts 310°
2026-04-29 12:08 42.60235 -17.56520 35951 ft 471 kts 310°
2026-04-29 12:08 42.64372 -17.63444 35970 ft 473 kts 310°
2026-04-29 12:09 42.68493 -17.70359 35975 ft 474 kts 310°
2026-04-29 12:09 42.72640 -17.77331 35969 ft 475 kts 309°
2026-04-29 12:10 42.76784 -17.84317 35969 ft 473 kts 310°
2026-04-29 12:10 42.80918 -17.91303 35966 ft 473 kts 310°
2026-04-29 12:11 42.85041 -17.98286 35950 ft 472 kts 310°
2026-04-29 12:11 42.89152 -18.05263 35972 ft 473 kts 309°
2026-04-29 12:12 42.93254 -18.12241 35967 ft 473 kts 309°
2026-04-29 12:12 42.97364 -18.19253 35969 ft 475 kts 309°
2026-04-29 12:13 43.01490 -18.26308 35966 ft 475 kts 309°
2026-04-29 12:13 43.05605 -18.33363 35972 ft 474 kts 309°
2026-04-29 12:14 43.09715 -18.40424 35972 ft 473 kts 309°
2026-04-29 12:14 43.13812 -18.47479 35973 ft 473 kts 309°
2026-04-29 12:15 43.17877 -18.54492 35978 ft 475 kts 309°
2026-04-29 12:15 43.21981 -18.61597 35977 ft 474 kts 309°
2026-04-29 12:16 43.26082 -18.68706 35978 ft 477 kts 309°
2026-04-29 12:16 43.30185 -18.75842 35981 ft 475 kts 309°
2026-04-29 12:17 43.34268 -18.82960 35978 ft 474 kts 309°
2026-04-29 12:17 43.38341 -18.90077 35976 ft 472 kts 309°
2026-04-29 12:18 43.42406 -18.97195 35982 ft 473 kts 309°
2026-04-29 12:18 43.46452 -19.04295 35978 ft 476 kts 309°
2026-04-29 12:19 43.50524 -19.11459 35981 ft 475 kts 309°
2026-04-29 12:19 43.54599 -19.18652 35986 ft 476 kts 309°
2026-04-29 12:20 43.58677 -19.25869 35988 ft 476 kts 309°
2026-04-29 12:20 43.62745 -19.33077 35989 ft 477 kts 308°
2026-04-29 12:21 43.66813 -19.40313 35986 ft 476 kts 309°
2026-04-29 12:21 43.70870 -19.47540 35991 ft 476 kts 308°
2026-04-29 12:22 43.74918 -19.54769 35989 ft 479 kts 309°
2026-04-29 12:22 43.78989 -19.62054 35992 ft 478 kts 308°
2026-04-29 12:23 43.83064 -19.69371 35996 ft 479 kts 308°
2026-04-29 12:23 43.87130 -19.76693 35989 ft 479 kts 308°
2026-04-29 12:24 43.91187 -19.84009 35993 ft 479 kts 308°
2026-04-29 12:24 43.95243 -19.91347 35997 ft 479 kts 308°
2026-04-29 12:25 43.99181 -19.98731 35996 ft 479 kts 302°
2026-04-29 12:26 44.03508 -20.11263 36000 ft 481 kts 294°
2026-04-29 12:26 44.06105 -20.19845 36005 ft 481 kts 293°
2026-04-29 12:27 44.08689 -20.28459 35998 ft 482 kts 293°
2026-04-29 12:27 44.11266 -20.37017 35999 ft 481 kts 293°
2026-04-29 12:28 44.13862 -20.45638 35995 ft 483 kts 293°
2026-04-29 12:28 44.16462 -20.54294 36000 ft 484 kts 293°
2026-04-29 12:29 44.19054 -20.62954 35999 ft 484 kts 293°
2026-04-29 12:29 44.21623 -20.71568 36002 ft 484 kts 293°
2026-04-29 12:30 44.24202 -20.80245 36001 ft 484 kts 293°
2026-04-29 12:30 44.26777 -20.88936 36004 ft 485 kts 292°
2026-04-29 12:31 44.29351 -20.97652 36007 ft 485 kts 292°
2026-04-29 12:31 44.31919 -21.06377 36006 ft 486 kts 292°
2026-04-29 12:32 44.34464 -21.15061 36007 ft 486 kts 292°
2026-04-29 12:32 44.37020 -21.23810 36004 ft 487 kts 292°
2026-04-29 12:33 44.39574 -21.32583 36007 ft 487 kts 292°
2026-04-29 12:33 44.42123 -21.41369 36006 ft 487 kts 292°
2026-04-29 12:34 44.44667 -21.50166 36008 ft 488 kts 291°
2026-04-29 12:34 44.47190 -21.58923 36007 ft 488 kts 291°
2026-04-29 12:35 44.49721 -21.67743 36006 ft 488 kts 291°
2026-04-29 12:35 44.52244 -21.76562 36004 ft 487 kts 291°
2026-04-29 12:36 44.54762 -21.85393 36013 ft 488 kts 291°
2026-04-29 12:36 44.57278 -21.94252 36004 ft 488 kts 291°
2026-04-29 12:37 44.59785 -22.03108 36010 ft 489 kts 291°
2026-04-29 12:37 44.62294 -22.12008 36009 ft 490 kts 291°
2026-04-29 12:38 44.64779 -22.20850 36015 ft 490 kts 291°
2026-04-29 12:38 44.67272 -22.29754 36014 ft 489 kts 291°
2026-04-29 12:39 44.69752 -22.38645 36008 ft 489 kts 290°
2026-04-29 12:39 44.72235 -22.47580 36012 ft 490 kts 291°
2026-04-29 12:40 44.74716 -22.56532 36005 ft 492 kts 290°
2026-04-29 12:40 44.77181 -22.65473 36010 ft 494 kts 290°
2026-04-29 12:41 44.79659 -22.74481 36006 ft 493 kts 289°
2026-04-29 12:41 44.82127 -22.83496 36009 ft 492 kts 290°
2026-04-29 12:42 44.84168 -22.90975 36010 ft 492 kts 290°
2026-04-29 12:42 44.86621 -23.00002 36005 ft 494 kts 290°
2026-04-29 12:43 44.89074 -23.09050 36012 ft 494 kts 290°
2026-04-29 12:43 44.91534 -23.18160 36011 ft 499 kts 289°
2026-04-29 12:44 44.93991 -23.27296 36009 ft 496 kts 289°
2026-04-29 12:44 44.96433 -23.36420 36014 ft 497 kts 290°
2026-04-29 12:45 44.98848 -23.45476 36006 ft 494 kts 289°
2026-04-29 12:45 45.01272 -23.54584 36007 ft 497 kts 289°
2026-04-29 12:46 45.03698 -23.63743 36010 ft 497 kts 289°
2026-04-29 12:46 45.06124 -23.72940 36003 ft 499 kts 289°
2026-04-29 12:47 45.08548 -23.82163 36004 ft 498 kts 289°
2026-04-29 12:47 45.10961 -23.91375 36008 ft 499 kts 289°
2026-04-29 12:48 45.13340 -24.00501 36014 ft 497 kts 289°
2026-04-29 12:48 45.15733 -24.09720 36005 ft 499 kts 289°
2026-04-29 12:49 45.18121 -24.18947 36010 ft 500 kts 288°
2026-04-29 12:49 45.20510 -24.28224 36004 ft 500 kts 289°
2026-04-29 12:50 45.22890 -24.37494 36010 ft 500 kts 288°
2026-04-29 12:50 45.25260 -24.46767 36011 ft 499 kts 289°
2026-04-29 12:51 45.27601 -24.55965 36009 ft 499 kts 288°
2026-04-29 12:51 45.29953 -24.65239 36009 ft 499 kts 288°
2026-04-29 12:52 45.32303 -24.74537 36007 ft 501 kts 288°
2026-04-29 12:52 45.34645 -24.83852 36015 ft 499 kts 288°
2026-04-29 12:53 45.36980 -24.93168 35999 ft 500 kts 288°
2026-04-29 12:53 45.39299 -25.02466 36016 ft 499 kts 288°
2026-04-29 12:54 45.41615 -25.11789 35999 ft 500 kts 288°
2026-04-29 12:54 45.43930 -25.21142 35997 ft 501 kts 288°
2026-04-29 12:55 45.46221 -25.30437 36004 ft 500 kts 288°
2026-04-29 12:55 45.48517 -25.39792 36004 ft 500 kts 288°
2026-04-29 12:56 45.50802 -25.49144 36004 ft 499 kts 288°
2026-04-29 12:56 45.53080 -25.58501 36005 ft 500 kts 288°
2026-04-29 12:57 45.55351 -25.67869 36002 ft 501 kts 287°
2026-04-29 12:57 45.57620 -25.77272 36006 ft 500 kts 288°
2026-04-29 12:58 45.59877 -25.86662 36002 ft 501 kts 288°
2026-04-29 12:58 45.62131 -25.96072 36003 ft 501 kts 287°
2026-04-29 12:59 45.64373 -26.05479 35995 ft 501 kts 287°
2026-04-29 12:59 45.66608 -26.14893 35995 ft 501 kts 287°
2026-04-29 13:00 45.68843 -26.24356 35995 ft 501 kts 287°
2026-04-29 13:00 45.71065 -26.33800 35996 ft 501 kts 287°
2026-04-29 13:01 45.73276 -26.43233 35997 ft 499 kts 286°
2026-04-29 13:01 45.75465 -26.52618 35991 ft 499 kts 287°
2026-04-29 13:02 45.77659 -26.62061 35990 ft 499 kts 286°
2026-04-29 13:02 45.79846 -26.71521 35996 ft 499 kts 287°
2026-04-29 13:03 45.82020 -26.80961 35984 ft 499 kts 286°
2026-04-29 13:03 45.84186 -26.90409 35989 ft 498 kts 286°
2026-04-29 13:04 45.86347 -26.99867 35983 ft 499 kts 285°
2026-04-29 13:04 45.88498 -27.09333 35985 ft 499 kts 285°
2026-04-29 13:05 45.90628 -27.18747 35983 ft 499 kts 285°
2026-04-29 13:05 45.92767 -27.28245 35984 ft 498 kts 285°
2026-04-29 13:06 45.94896 -27.37735 35981 ft 498 kts 285°
2026-04-29 13:06 45.97014 -27.47218 35979 ft 498 kts 285°
2026-04-29 13:07 45.99108 -27.56640 35982 ft 499 kts 285°
2026-04-29 13:07 46.01218 -27.66178 35974 ft 500 kts 285°
2026-04-29 13:08 46.03320 -27.75722 35975 ft 500 kts 285°
2026-04-29 13:08 46.05418 -27.85283 35977 ft 500 kts 285°
2026-04-29 13:09 46.07501 -27.94826 35976 ft 500 kts 284°
2026-04-29 13:09 46.09577 -28.04382 35975 ft 499 kts 284°
2026-04-29 13:10 46.11644 -28.13937 35979 ft 500 kts 284°
2026-04-29 13:10 46.13697 -28.23475 35971 ft 502 kts 284°
2026-04-29 13:11 46.15760 -28.33099 35972 ft 502 kts 284°
2026-04-29 13:11 46.17812 -28.42723 35971 ft 502 kts 284°
2026-04-29 13:12 46.19858 -28.52358 35974 ft 502 kts 284°
2026-04-29 13:12 46.21894 -28.61992 35966 ft 502 kts 284°
2026-04-29 13:13 46.23924 -28.71642 35986 ft 502 kts 283°
2026-04-29 13:13 46.25944 -28.81292 35968 ft 502 kts 283°
2026-04-29 13:14 46.27958 -28.90962 35965 ft 502 kts 283°
2026-04-29 13:14 46.29963 -29.00630 35962 ft 502 kts 283°
2026-04-29 13:15 46.31960 -29.10308 35962 ft 502 kts 283°
2026-04-29 13:15 46.33934 -29.19923 35966 ft 502 kts 282°
2026-04-29 13:16 46.35912 -29.29599 35967 ft 501 kts 282°
2026-04-29 13:16 46.37883 -29.39288 35954 ft 502 kts 282°
2026-04-29 13:17 46.39844 -29.48984 35956 ft 502 kts 282°
2026-04-29 13:17 46.41802 -29.58705 35957 ft 502 kts 282°
2026-04-29 13:18 46.43747 -29.68411 35963 ft 501 kts 282°
2026-04-29 13:18 46.45682 -29.78117 35953 ft 501 kts 281°
2026-04-29 13:19 46.47600 -29.87781 35957 ft 500 kts 281°
2026-04-29 13:19 46.49555 -29.97479 35958 ft 502 kts 284°
2026-04-29 13:20 46.52455 -30.06780 35951 ft 507 kts 292°
2026-04-29 13:20 46.55710 -30.15888 35957 ft 508 kts 294°
2026-04-29 13:21 46.59021 -30.24986 35956 ft 508 kts 294°
2026-04-29 13:21 46.62289 -30.34027 35957 ft 508 kts 293°
2026-04-29 13:22 46.65556 -30.43142 35949 ft 508 kts 293°
2026-04-29 13:22 46.68809 -30.52261 35951 ft 507 kts 293°
2026-04-29 13:23 46.72050 -30.61383 35953 ft 507 kts 293°
2026-04-29 13:23 46.75290 -30.70531 35959 ft 508 kts 292°
2026-04-29 13:24 46.78531 -30.79712 35953 ft 509 kts 292°
2026-04-29 13:24 46.81753 -30.88871 35956 ft 509 kts 292°
2026-04-29 13:25 46.84981 -30.98075 35957 ft 509 kts 292°
2026-04-29 13:25 46.89810 -31.11910 35952 ft 509 kts 292°
2026-04-29 13:26 46.92990 -31.21061 35958 ft 509 kts 292°
2026-04-29 13:26 46.96192 -31.30305 35957 ft 509 kts 292°
2026-04-29 13:27 46.99385 -31.39557 35954 ft 509 kts 292°
2026-04-29 13:27 47.02569 -31.48818 35959 ft 509 kts 292°
2026-04-29 13:28 47.05737 -31.58065 35965 ft 511 kts 292°
2026-04-29 13:28 47.08923 -31.67393 35965 ft 511 kts 292°
2026-04-29 13:29 47.12103 -31.76738 35967 ft 511 kts 292°
2026-04-29 13:29 47.15272 -31.86086 35971 ft 511 kts 291°
2026-04-29 13:30 47.18411 -31.95378 35983 ft 510 kts 291°
2026-04-29 13:30 47.21558 -32.04727 35978 ft 509 kts 291°
2026-04-29 13:31 47.24692 -32.14071 35988 ft 509 kts 291°
2026-04-29 13:31 47.27291 -32.21846 35984 ft 509 kts 291°
2026-04-29 13:32 47.30917 -32.32735 35998 ft 508 kts 291°
2026-04-29 13:32 47.33497 -32.40505 36003 ft 506 kts 291°
2026-04-29 13:33 47.36589 -32.49853 36007 ft 506 kts 291°
2026-04-29 13:33 47.39670 -32.59202 36009 ft 506 kts 291°
2026-04-29 13:34 47.42737 -32.68544 36026 ft 506 kts 291°
2026-04-29 13:34 47.45778 -32.77835 36015 ft 504 kts 291°
2026-04-29 13:35 47.48843 -32.87234 36026 ft 504 kts 291°
2026-04-29 13:35 47.51857 -32.96517 36027 ft 504 kts 291°
2026-04-29 13:36 47.54884 -33.05873 36043 ft 504 kts 291°
2026-04-29 13:36 47.57896 -33.15211 36050 ft 501 kts 290°
2026-04-29 13:37 47.60892 -33.24538 36045 ft 502 kts 291°
2026-04-29 13:37 47.63891 -33.33909 36049 ft 503 kts 290°
2026-04-29 13:38 47.66883 -33.43292 36053 ft 503 kts 290°
2026-04-29 13:38 47.69868 -33.52683 36063 ft 503 kts 290°
2026-04-29 13:39 47.72842 -33.62079 36072 ft 503 kts 290°
2026-04-29 13:39 47.75789 -33.71424 36080 ft 503 kts 290°
2026-04-29 13:40 47.78748 -33.80843 36085 ft 503 kts 290°
2026-04-29 13:40 47.81700 -33.90272 36086 ft 502 kts 290°
2026-04-29 13:41 47.84638 -33.99694 36095 ft 501 kts 290°
2026-04-29 13:41 47.87566 -34.09119 36110 ft 501 kts 290°
2026-04-29 13:42 47.90490 -34.18568 36103 ft 502 kts 290°
2026-04-29 13:42 47.93385 -34.27958 36113 ft 501 kts 290°
2026-04-29 13:43 47.96286 -34.37404 36113 ft 500 kts 290°
2026-04-29 13:43 47.99177 -34.46854 36125 ft 500 kts 290°
2026-04-29 13:44 48.02059 -34.56310 36132 ft 500 kts 290°
2026-04-29 13:44 48.04932 -34.65772 36133 ft 500 kts 290°
2026-04-29 13:45 48.07801 -34.75250 36141 ft 500 kts 290°
2026-04-29 13:45 48.10659 -34.84731 36142 ft 500 kts 290°
2026-04-29 13:46 48.13489 -34.94160 36146 ft 499 kts 290°
2026-04-29 13:46 48.16335 -35.03673 36158 ft 501 kts 290°
2026-04-29 13:47 48.19167 -35.13176 36158 ft 501 kts 290°
2026-04-29 13:47 48.21988 -35.22706 36169 ft 500 kts 290°
2026-04-29 13:48 48.24799 -35.32223 36170 ft 498 kts 291°
2026-04-29 13:48 48.27589 -35.41676 36174 ft 499 kts 290°
2026-04-29 13:49 48.30395 -35.51227 36185 ft 499 kts 290°
2026-04-29 13:49 48.33177 -35.60756 36180 ft 498 kts 290°
2026-04-29 13:50 48.35945 -35.70290 36196 ft 496 kts 291°
2026-04-29 13:50 48.38708 -35.79801 36187 ft 497 kts 290°
2026-04-29 13:51 48.41449 -35.89325 36200 ft 494 kts 292°
2026-04-29 13:51 48.44176 -35.98795 36202 ft 492 kts 292°
2026-04-29 13:52 48.46894 -36.08272 36210 ft 492 kts 292°
2026-04-29 13:52 48.49595 -36.17751 36221 ft 491 kts 292°
2026-04-29 13:53 48.52270 -36.27165 36220 ft 491 kts 292°
2026-04-29 13:53 48.54946 -36.36616 36228 ft 489 kts 292°
2026-04-29 13:54 48.57610 -36.46059 36227 ft 489 kts 292°
2026-04-29 13:54 48.60267 -36.55514 36235 ft 488 kts 292°
2026-04-29 13:55 48.62912 -36.64967 36246 ft 488 kts 293°
2026-04-29 13:55 48.65541 -36.74407 36242 ft 486 kts 293°
2026-04-29 13:56 48.68160 -36.83835 36249 ft 484 kts 294°
2026-04-29 13:56 48.70747 -36.93204 36251 ft 480 kts 294°
2026-04-29 13:57 48.73300 -37.02478 36260 ft 479 kts 294°
2026-04-29 13:57 48.75856 -37.11800 36257 ft 477 kts 295°
2026-04-29 13:58 48.78403 -37.21123 36261 ft 478 kts 295°
2026-04-29 13:58 48.80948 -37.30471 36267 ft 480 kts 294°
2026-04-29 13:59 48.83470 -37.39803 36274 ft 476 kts 295°
2026-04-29 13:59 48.85988 -37.49110 36275 ft 477 kts 294°
2026-04-29 14:00 48.88519 -37.58493 36281 ft 481 kts 294°
2026-04-29 14:00 48.91032 -37.67890 36288 ft 479 kts 294°
2026-04-29 14:01 48.93516 -37.77210 36283 ft 478 kts 295°
2026-04-29 14:01 48.96011 -37.86606 36289 ft 478 kts 295°
2026-04-29 14:02 48.98493 -37.95982 36290 ft 477 kts 295°
2026-04-29 14:02 49.00960 -38.05348 36300 ft 476 kts 295°
2026-04-29 14:03 49.03416 -38.14710 36299 ft 476 kts 294°
2026-04-29 14:03 49.05827 -38.23931 36303 ft 476 kts 294°
2026-04-29 14:04 49.08254 -38.33257 36302 ft 476 kts 294°
2026-04-29 14:04 49.10685 -38.42634 36306 ft 473 kts 294°
2026-04-29 14:05 49.13097 -38.51977 36318 ft 473 kts 294°
2026-04-29 14:05 49.15503 -38.61331 36319 ft 473 kts 294°
2026-04-29 14:06 49.17902 -38.70701 36321 ft 473 kts 294°
2026-04-29 14:06 49.20278 -38.80017 36318 ft 473 kts 294°
2026-04-29 14:07 49.22660 -38.89395 36328 ft 473 kts 294°
2026-04-29 14:07 49.25033 -38.98779 36328 ft 473 kts 294°
2026-04-29 14:08 49.27401 -39.08179 36330 ft 473 kts 294°
2026-04-29 14:08 49.29762 -39.17596 36331 ft 473 kts 294°
2026-04-29 14:09 49.32095 -39.26936 36332 ft 472 kts 294°
2026-04-29 14:09 49.34431 -39.36329 36338 ft 471 kts 294°
2026-04-29 14:10 49.36763 -39.45744 36339 ft 471 kts 294°
2026-04-29 14:10 49.39084 -39.55153 36345 ft 471 kts 294°
2026-04-29 14:11 49.41398 -39.64575 36337 ft 471 kts 293°
2026-04-29 14:11 49.43706 -39.74011 36338 ft 472 kts 293°
2026-04-29 14:12 49.46008 -39.83466 36349 ft 472 kts 293°
2026-04-29 14:12 49.48290 -39.92876 36355 ft 472 kts 293°
2026-04-29 14:13 49.49998 -40.02657 36348 ft 477 kts 280°
2026-04-29 14:13 49.50612 -40.12847 36356 ft 479 kts 277°
2026-04-29 14:14 49.51026 -40.23071 36357 ft 478 kts 276°
2026-04-29 14:14 49.51409 -40.33294 36354 ft 478 kts 276°
2026-04-29 14:15 49.51803 -40.43513 36352 ft 478 kts 276°
2026-04-29 14:15 49.52200 -40.53730 36362 ft 478 kts 276°
2026-04-29 14:16 49.52591 -40.63951 36359 ft 478 kts 276°
2026-04-29 14:16 49.52970 -40.74113 36359 ft 478 kts 276°
2026-04-29 14:17 49.53341 -40.84337 36363 ft 477 kts 276°
2026-04-29 14:17 49.53703 -40.94534 36366 ft 477 kts 276°
2026-04-29 14:18 49.54056 -41.04750 36352 ft 477 kts 276°
2026-04-29 14:18 49.54399 -41.14956 36371 ft 477 kts 276°
2026-04-29 14:19 49.54732 -41.25093 36369 ft 477 kts 276°
2026-04-29 14:19 49.55058 -41.35295 36368 ft 477 kts 276°
2026-04-29 14:20 49.55374 -41.45505 36373 ft 477 kts 276°
2026-04-29 14:20 49.55682 -41.55702 36374 ft 477 kts 276°
2026-04-29 14:21 49.55931 -41.64189 36373 ft 477 kts 276°
2026-04-29 14:21 49.56222 -41.74397 36373 ft 477 kts 276°
2026-04-29 14:22 49.56504 -41.84606 36379 ft 477 kts 276°
2026-04-29 14:22 49.56777 -41.94808 36379 ft 477 kts 276°
2026-04-29 14:23 49.57041 -42.05016 36379 ft 477 kts 276°
2026-04-29 14:23 49.57297 -42.15241 36384 ft 477 kts 276°
2026-04-29 14:24 49.57543 -42.25462 36384 ft 477 kts 276°
2026-04-29 14:24 49.57781 -42.35690 36385 ft 478 kts 275°
2026-04-29 14:25 49.58009 -42.45924 36387 ft 478 kts 275°
2026-04-29 14:25 49.58229 -42.56162 36386 ft 478 kts 275°
2026-04-29 14:26 49.58440 -42.66428 36387 ft 478 kts 275°
2026-04-29 14:26 49.58641 -42.76623 36388 ft 478 kts 275°
2026-04-29 14:27 49.58834 -42.86871 36392 ft 479 kts 275°
2026-04-29 14:28 49.59106 -43.02258 36393 ft 479 kts 275°
2026-04-29 14:28 49.59277 -43.12537 36396 ft 479 kts 275°
2026-04-29 14:29 49.59438 -43.22819 36398 ft 479 kts 275°
2026-04-29 14:29 49.59590 -43.33097 36397 ft 480 kts 275°
2026-04-29 14:30 49.59734 -43.43372 36398 ft 480 kts 275°
2026-04-29 14:30 49.59868 -43.53659 36397 ft 480 kts 275°
2026-04-29 14:31 49.59993 -43.63947 36399 ft 480 kts 275°
2026-04-29 14:31 49.60109 -43.74188 36407 ft 481 kts 275°
2026-04-29 14:32 49.60216 -43.84500 36402 ft 481 kts 275°
2026-04-29 14:32 49.60314 -43.94812 36399 ft 481 kts 275°
2026-04-29 14:33 49.60402 -44.05080 36411 ft 481 kts 275°
2026-04-29 14:33 49.60482 -44.15391 36411 ft 481 kts 275°
2026-04-29 14:34 49.60553 -44.25716 36411 ft 482 kts 275°
2026-04-29 14:34 49.60614 -44.36054 36411 ft 482 kts 274°
2026-04-29 14:35 49.60667 -44.46407 36411 ft 482 kts 274°
2026-04-29 14:35 49.60710 -44.56750 36411 ft 482 kts 274°
2026-04-29 14:36 49.60743 -44.67033 36412 ft 482 kts 274°
2026-04-29 14:36 49.60768 -44.77376 36412 ft 482 kts 274°
2026-04-29 14:37 49.60784 -44.87726 36395 ft 482 kts 274°
2026-04-29 14:37 49.60790 -44.98095 36410 ft 483 kts 274°
2026-04-29 14:38 49.60788 -45.08460 36411 ft 483 kts 274°
2026-04-29 14:38 49.60775 -45.18835 36408 ft 484 kts 274°
2026-04-29 14:39 49.60754 -45.29200 36411 ft 484 kts 274°
2026-04-29 14:39 49.60723 -45.39511 36411 ft 484 kts 274°
2026-04-29 14:40 49.60683 -45.49883 36411 ft 484 kts 274°
2026-04-29 14:40 49.60634 -45.60254 36411 ft 484 kts 274°
2026-04-29 14:41 49.60576 -45.70632 36411 ft 484 kts 273°
2026-04-29 14:41 49.60508 -45.81009 36402 ft 484 kts 273°
2026-04-29 14:42 49.60431 -45.91383 36408 ft 484 kts 273°
2026-04-29 14:42 49.60344 -46.01762 36409 ft 484 kts 273°
2026-04-29 14:43 49.60249 -46.12143 36399 ft 484 kts 273°
2026-04-29 14:43 49.60144 -46.22539 36411 ft 485 kts 273°
2026-04-29 14:44 49.60030 -46.32857 36409 ft 485 kts 273°
2026-04-29 14:44 49.59906 -46.43250 36397 ft 485 kts 272°
2026-04-29 14:45 49.59773 -46.53656 36411 ft 485 kts 272°
2026-04-29 14:45 49.59630 -46.64042 36411 ft 484 kts 272°
2026-04-29 14:46 49.59479 -46.74438 36410 ft 484 kts 272°
2026-04-29 14:46 49.59318 -46.84831 36410 ft 485 kts 272°
2026-04-29 14:47 49.59149 -46.95169 36409 ft 485 kts 272°
2026-04-29 14:47 49.58969 -47.05573 36409 ft 485 kts 272°
2026-04-29 14:48 49.58780 -47.15967 36411 ft 484 kts 272°
2026-04-29 14:48 49.58582 -47.26343 36411 ft 484 kts 272°
2026-04-29 14:49 49.58376 -47.36715 36408 ft 484 kts 272°
2026-04-29 14:49 49.58160 -47.47097 36403 ft 485 kts 271°
2026-04-29 14:50 49.57935 -47.57435 36417 ft 485 kts 271°
2026-04-29 14:50 49.57699 -47.67817 36407 ft 485 kts 271°
2026-04-29 14:51 49.57455 -47.78190 36402 ft 483 kts 271°
2026-04-29 14:51 49.57202 -47.88535 36404 ft 483 kts 271°
2026-04-29 14:52 49.56940 -47.98871 36398 ft 483 kts 271°
2026-04-29 14:52 49.56672 -48.09143 36408 ft 483 kts 271°
2026-04-29 14:53 49.56391 -48.19487 36392 ft 483 kts 271°
2026-04-29 14:53 49.56102 -48.29819 36400 ft 483 kts 271°
2026-04-29 14:54 49.55803 -48.40148 36403 ft 482 kts 270°
2026-04-29 14:54 49.55496 -48.50453 36396 ft 481 kts 270°
2026-04-29 14:55 49.55180 -48.60759 36398 ft 481 kts 270°
2026-04-29 14:55 49.54855 -48.71058 36399 ft 482 kts 270°
2026-04-29 14:56 49.54520 -48.81374 36401 ft 482 kts 270°
2026-04-29 14:56 49.54176 -48.91691 36399 ft 482 kts 270°
2026-04-29 14:57 49.53825 -49.01940 36399 ft 482 kts 270°
2026-04-29 14:57 49.53463 -49.12244 36400 ft 482 kts 270°
2026-04-29 14:58 49.53091 -49.22551 36396 ft 482 kts 270°
2026-04-29 14:58 49.52711 -49.32856 36395 ft 482 kts 269°
2026-04-29 14:59 49.52321 -49.43177 36400 ft 483 kts 269°
2026-04-29 14:59 49.51921 -49.53494 36396 ft 483 kts 269°
2026-04-29 15:00 49.51515 -49.63747 36395 ft 483 kts 269°
2026-04-29 15:00 49.51097 -49.74084 36395 ft 484 kts 269°
2026-04-29 15:01 49.50669 -49.84412 36394 ft 484 kts 269°
2026-04-29 15:01 49.50226 -49.94745 36388 ft 484 kts 268°
2026-04-29 15:02 49.48795 -50.04893 36388 ft 489 kts 254°
2026-04-29 15:02 49.46535 -50.14778 36387 ft 490 kts 252°
2026-04-29 15:03 49.44146 -50.24544 36387 ft 490 kts 251°
2026-04-29 15:03 49.41738 -50.34350 36380 ft 490 kts 251°
2026-04-29 15:04 49.39343 -50.44157 36386 ft 491 kts 251°
2026-04-29 15:04 49.36944 -50.53977 36387 ft 491 kts 251°
2026-04-29 15:05 49.34539 -50.63784 36386 ft 491 kts 251°
2026-04-29 15:05 49.32125 -50.73581 36384 ft 491 kts 251°
2026-04-29 15:06 49.29716 -50.83312 36375 ft 491 kts 250°
2026-04-29 15:06 49.27286 -50.93084 36382 ft 491 kts 250°
2026-04-29 15:07 49.24847 -51.02851 36381 ft 491 kts 250°
2026-04-29 15:07 49.22399 -51.12608 36379 ft 491 kts 250°
2026-04-29 15:08 49.19946 -51.22345 36379 ft 491 kts 250°
2026-04-29 15:08 49.17483 -51.32082 36379 ft 491 kts 250°
2026-04-29 15:09 49.15012 -51.41805 36381 ft 491 kts 250°
2026-04-29 15:09 49.12548 -51.51459 36374 ft 491 kts 250°
2026-04-29 15:10 49.10059 -51.61173 36371 ft 491 kts 250°
2026-04-29 15:10 49.07982 -51.69245 36370 ft 491 kts 250°
2026-04-29 15:11 49.05480 -51.78933 36374 ft 491 kts 249°
2026-04-29 15:11 49.02968 -51.88618 36376 ft 491 kts 249°
2026-04-29 15:12 49.00512 -51.98318 36365 ft 490 kts 253°
2026-04-29 15:12 48.99012 -52.08407 36375 ft 488 kts 261°
2026-04-29 15:13 48.97812 -52.18585 36370 ft 489 kts 261°
2026-04-29 15:13 48.96651 -52.28779 36366 ft 489 kts 261°
2026-04-29 15:14 48.95467 -52.38978 36369 ft 489 kts 261°
2026-04-29 15:14 48.94269 -52.49107 36361 ft 489 kts 260°
2026-04-29 15:15 48.93050 -52.59297 36356 ft 489 kts 260°
2026-04-29 15:15 48.91822 -52.69475 36359 ft 489 kts 260°
2026-04-29 15:16 48.90585 -52.79661 36357 ft 490 kts 260°
2026-04-29 15:16 48.89339 -52.89847 36354 ft 490 kts 259°
2026-04-29 15:17 48.88092 -52.99962 36351 ft 490 kts 259°
2026-04-29 15:17 48.86828 -53.10129 36349 ft 490 kts 259°
2026-04-29 15:18 48.85553 -53.20312 36348 ft 490 kts 259°
2026-04-29 15:18 48.84272 -53.30468 36342 ft 490 kts 259°
2026-04-29 15:19 48.82981 -53.40623 36343 ft 489 kts 259°
2026-04-29 15:19 48.81684 -53.50756 36343 ft 489 kts 259°
2026-04-29 15:20 48.80375 -53.60907 36336 ft 489 kts 258°
2026-04-29 15:20 48.79069 -53.70953 36336 ft 489 kts 258°
2026-04-29 15:21 48.77739 -53.81122 36329 ft 489 kts 258°
2026-04-29 15:21 48.76415 -53.91165 36332 ft 489 kts 258°
2026-04-29 15:22 48.75074 -54.01264 36330 ft 489 kts 258°
2026-04-29 15:22 48.73724 -54.11359 36324 ft 489 kts 258°
2026-04-29 15:23 48.72366 -54.21442 36328 ft 489 kts 258°
2026-04-29 15:23 48.70999 -54.31537 36323 ft 488 kts 257°
2026-04-29 15:24 48.69626 -54.41598 36312 ft 488 kts 257°
2026-04-29 15:24 48.68242 -54.51661 36313 ft 488 kts 257°
2026-04-29 15:25 48.66857 -54.61663 36310 ft 488 kts 257°
2026-04-29 15:25 48.65455 -54.71717 36301 ft 488 kts 257°
2026-04-29 15:26 48.64046 -54.81764 36300 ft 488 kts 257°
2026-04-29 15:26 48.62630 -54.91794 36292 ft 488 kts 256°
2026-04-29 15:27 48.61204 -55.01815 36291 ft 487 kts 256°
2026-04-29 15:27 48.59769 -55.11832 36290 ft 487 kts 256°
2026-04-29 15:28 48.58327 -55.21841 36292 ft 487 kts 256°
2026-04-29 15:28 48.56886 -55.31780 36291 ft 487 kts 256°
2026-04-29 15:29 48.55429 -55.41765 36290 ft 487 kts 256°
2026-04-29 15:30 48.52480 -55.61767 36291 ft 487 kts 255°
2026-04-29 15:30 48.51006 -55.71668 36288 ft 487 kts 255°
2026-04-29 15:31 48.49513 -55.81633 36287 ft 487 kts 255°
2026-04-29 15:31 48.48012 -55.91585 36290 ft 486 kts 255°
2026-04-29 15:32 48.46503 -56.01534 36289 ft 487 kts 255°
2026-04-29 15:32 48.44985 -56.11482 36289 ft 488 kts 255°
2026-04-29 15:33 48.43456 -56.21436 36287 ft 487 kts 254°
2026-04-29 15:33 48.41922 -56.31367 36290 ft 487 kts 254°
2026-04-29 15:34 48.40377 -56.41298 36284 ft 487 kts 254°
2026-04-29 15:34 48.38836 -56.51146 36281 ft 487 kts 254°
2026-04-29 15:35 48.37275 -56.61057 36288 ft 487 kts 254°
2026-04-29 15:35 48.35707 -56.70964 36285 ft 487 kts 254°
2026-04-29 15:36 48.34127 -56.80878 36291 ft 487 kts 254°
2026-04-29 15:36 48.32542 -56.90768 36296 ft 486 kts 253°
2026-04-29 15:37 48.30945 -57.00676 36309 ft 486 kts 253°
2026-04-29 15:37 48.29349 -57.10509 36306 ft 486 kts 253°
2026-04-29 15:38 48.27739 -57.20376 36315 ft 486 kts 253°
2026-04-29 15:38 48.26122 -57.30226 36312 ft 486 kts 253°
2026-04-29 15:39 48.24498 -57.40063 36311 ft 486 kts 253°
2026-04-29 15:39 48.22875 -57.49843 36319 ft 486 kts 253°
2026-04-29 15:40 48.21237 -57.59658 36307 ft 484 kts 252°
2026-04-29 15:40 48.19592 -57.69453 36304 ft 484 kts 252°
2026-04-29 15:41 48.17941 -57.79228 36302 ft 484 kts 252°
2026-04-29 15:41 48.16289 -57.88947 36302 ft 483 kts 252°
2026-04-29 15:42 48.14622 -57.98706 36301 ft 483 kts 252°
2026-04-29 15:42 48.12948 -58.08459 36305 ft 483 kts 252°
2026-04-29 15:43 48.11267 -58.18184 36302 ft 482 kts 252°
2026-04-29 15:43 48.09580 -58.27895 36304 ft 482 kts 252°
2026-04-29 15:44 48.07897 -58.37537 36305 ft 482 kts 252°
2026-04-29 15:44 48.06194 -58.47233 36307 ft 482 kts 251°
2026-04-29 15:45 48.04482 -58.56923 36304 ft 481 kts 251°
2026-04-29 15:45 48.02770 -58.66577 36308 ft 480 kts 251°
2026-04-29 15:46 48.01050 -58.76216 36316 ft 480 kts 251°
2026-04-29 15:46 47.99324 -58.85838 36309 ft 479 kts 251°
2026-04-29 15:47 47.97591 -58.95442 36310 ft 479 kts 251°
2026-04-29 15:47 47.95851 -59.05040 36304 ft 479 kts 251°
2026-04-29 15:48 47.94107 -59.14607 36306 ft 476 kts 252°
2026-04-29 15:48 47.92367 -59.24105 36307 ft 474 kts 251°
2026-04-29 15:49 47.90632 -59.33525 36301 ft 474 kts 251°
2026-04-29 15:49 47.88878 -59.42995 36308 ft 474 kts 251°
2026-04-29 15:50 47.87122 -59.52436 36312 ft 473 kts 251°
2026-04-29 15:50 47.85360 -59.61857 36300 ft 471 kts 252°
2026-04-29 15:51 47.83593 -59.71258 36305 ft 470 kts 252°
2026-04-29 15:51 47.81825 -59.80618 36307 ft 469 kts 252°
2026-04-29 15:52 47.80049 -59.89968 36305 ft 469 kts 252°
2026-04-29 15:52 47.78278 -59.99252 36310 ft 469 kts 252°
2026-04-29 15:53 47.76487 -60.08590 36309 ft 469 kts 252°
2026-04-29 15:53 47.74694 -60.17900 36296 ft 466 kts 252°
2026-04-29 15:54 47.72904 -60.27145 36290 ft 466 kts 252°
2026-04-29 15:54 47.71107 -60.36383 36293 ft 466 kts 252°
2026-04-29 15:55 47.69302 -60.45617 36286 ft 465 kts 252°
2026-04-29 15:55 47.67490 -60.54846 36281 ft 465 kts 252°
2026-04-29 15:56 47.65684 -60.63995 36285 ft 464 kts 252°
2026-04-29 15:56 47.63865 -60.73168 36282 ft 464 kts 252°
2026-04-29 15:57 47.62034 -60.82361 36278 ft 465 kts 252°
2026-04-29 15:57 47.60196 -60.91546 36276 ft 465 kts 252°
2026-04-29 15:58 47.58350 -61.00724 36278 ft 465 kts 252°
2026-04-29 15:58 47.56497 -61.09897 36270 ft 464 kts 252°
2026-04-29 15:59 47.54642 -61.19033 36273 ft 463 kts 252°
2026-04-29 15:59 47.52786 -61.28136 36278 ft 462 kts 252°
2026-04-29 16:00 47.51236 -61.35710 36272 ft 463 kts 252°
2026-04-29 16:00 47.49361 -61.44825 36274 ft 463 kts 252°
2026-04-29 16:01 47.47481 -61.53928 36275 ft 463 kts 252°
2026-04-29 16:01 47.45582 -61.63078 36316 ft 467 kts 252°
2026-04-29 16:01 47.44625 -61.67671 36481 ft 468 kts 252°
2026-04-29 16:02 47.43666 -61.72267 36704 ft 467 kts 252°
2026-04-29 16:02 47.42791 -61.76882 36896 ft 468 kts 257°
2026-04-29 16:02 47.42244 -61.81560 37107 ft 468 kts 261°
2026-04-29 16:02 47.41795 -61.86313 37300 ft 467 kts 262°
2026-04-29 16:03 47.41388 -61.91078 37465 ft 468 kts 262°
2026-04-29 16:03 47.41001 -61.95850 37610 ft 468 kts 263°
2026-04-29 16:03 47.40619 -62.00624 37803 ft 468 kts 263°
2026-04-29 16:03 47.40234 -62.05402 37986 ft 468 kts 263°
2026-04-29 16:04 47.39844 -62.10172 38161 ft 468 kts 262°
2026-04-29 16:04 47.39046 -62.19748 38246 ft 471 kts 262°
2026-04-29 16:05 47.38232 -62.29324 38245 ft 470 kts 262°
2026-04-29 16:05 47.37411 -62.38877 38245 ft 469 kts 262°
2026-04-29 16:06 47.36588 -62.48367 38245 ft 470 kts 262°
2026-04-29 16:06 47.35751 -62.57926 38247 ft 470 kts 262°
2026-04-29 16:07 47.34906 -62.67489 38236 ft 470 kts 262°
2026-04-29 16:07 47.34054 -62.77038 38238 ft 470 kts 262°
2026-04-29 16:08 47.33194 -62.86577 38231 ft 469 kts 261°
2026-04-29 16:08 47.32328 -62.96100 38225 ft 468 kts 261°
2026-04-29 16:09 47.31455 -63.05606 38227 ft 468 kts 261°
2026-04-29 16:09 47.30575 -63.15099 38227 ft 468 kts 261°
2026-04-29 16:10 47.29686 -63.24604 38226 ft 468 kts 261°
2026-04-29 16:10 47.28795 -63.34040 38226 ft 468 kts 261°
2026-04-29 16:11 47.27890 -63.43548 38228 ft 468 kts 260°
2026-04-29 16:11 47.26978 -63.53036 38222 ft 468 kts 260°
2026-04-29 16:12 47.26060 -63.62508 38218 ft 467 kts 260°
2026-04-29 16:12 47.25133 -63.71984 38216 ft 467 kts 260°
2026-04-29 16:13 47.24198 -63.81452 38216 ft 467 kts 260°
2026-04-29 16:13 47.23257 -63.90912 38213 ft 467 kts 260°
2026-04-29 16:14 47.22313 -64.00309 38214 ft 467 kts 259°
2026-04-29 16:14 47.21355 -64.09770 38197 ft 467 kts 259°
2026-04-29 16:15 47.20389 -64.19235 38197 ft 467 kts 259°
2026-04-29 16:15 47.19417 -64.28671 38199 ft 466 kts 259°
2026-04-29 16:16 47.18438 -64.38102 38191 ft 466 kts 259°
2026-04-29 16:16 47.17452 -64.47525 38192 ft 466 kts 259°
2026-04-29 16:17 47.16465 -64.56871 38192 ft 466 kts 259°
2026-04-29 16:17 47.15465 -64.66270 38187 ft 466 kts 259°
2026-04-29 16:18 47.14456 -64.75675 38187 ft 466 kts 259°
2026-04-29 16:18 47.13441 -64.85069 38179 ft 465 kts 258°
2026-04-29 16:19 47.12417 -64.94464 38196 ft 465 kts 258°
2026-04-29 16:19 47.11388 -65.03841 38186 ft 465 kts 258°
2026-04-29 16:20 47.10355 -65.13164 38190 ft 465 kts 258°
2026-04-29 16:20 47.09310 -65.22535 38187 ft 465 kts 258°
2026-04-29 16:21 47.08256 -65.31906 38191 ft 465 kts 258°
2026-04-29 16:21 47.07196 -65.41269 38194 ft 465 kts 258°
2026-04-29 16:22 47.06127 -65.50639 38191 ft 465 kts 257°
2026-04-29 16:22 47.05050 -65.60004 38191 ft 466 kts 257°
2026-04-29 16:23 47.03963 -65.69378 38190 ft 466 kts 257°
2026-04-29 16:23 47.02877 -65.78690 38184 ft 466 kts 257°
2026-04-29 16:24 47.01778 -65.88041 38185 ft 466 kts 257°
2026-04-29 16:24 47.00669 -65.97409 38175 ft 466 kts 257°
2026-04-29 16:25 46.99552 -66.06766 38172 ft 466 kts 257°
2026-04-29 16:25 46.98427 -66.16127 38191 ft 466 kts 257°
2026-04-29 16:26 46.97296 -66.25471 38167 ft 466 kts 256°
2026-04-29 16:26 46.96155 -66.34831 38165 ft 467 kts 256°
2026-04-29 16:27 46.95008 -66.44180 38170 ft 466 kts 256°
2026-04-29 16:27 46.93853 -66.53527 38164 ft 467 kts 256°
2026-04-29 16:28 46.92695 -66.62824 38160 ft 467 kts 256°
2026-04-29 16:28 46.91523 -66.72168 38159 ft 467 kts 256°
2026-04-29 16:29 46.90341 -66.81528 38165 ft 467 kts 256°
2026-04-29 16:29 46.89153 -66.90878 38155 ft 467 kts 256°
2026-04-29 16:30 46.87957 -67.00225 38159 ft 468 kts 256°
2026-04-29 16:30 46.86826 -67.09557 38151 ft 470 kts 259°
2026-04-29 16:31 46.86123 -67.19071 38153 ft 471 kts 261°
2026-04-29 16:31 46.85500 -67.28629 38153 ft 471 kts 261°
2026-04-29 16:32 46.84808 -67.38153 38153 ft 471 kts 260°
2026-04-29 16:32 46.84066 -67.47672 38159 ft 470 kts 260°
2026-04-29 16:33 46.82927 -67.61884 38124 ft 469 kts 260°
2026-04-29 16:33 46.82161 -67.71338 38124 ft 469 kts 260°
2026-04-29 16:34 46.81393 -67.80727 38112 ft 469 kts 260°
2026-04-29 16:34 46.80613 -67.90181 38119 ft 469 kts 260°
2026-04-29 16:35 46.79824 -67.99646 38085 ft 468 kts 260°
2026-04-29 16:35 46.79029 -68.09087 38095 ft 468 kts 260°
2026-04-29 16:36 46.78227 -68.18520 38097 ft 469 kts 260°
2026-04-29 16:36 46.77422 -68.27897 38114 ft 468 kts 260°
2026-04-29 16:37 46.76604 -68.37331 38098 ft 469 kts 260°
2026-04-29 16:37 46.75912 -68.45235 38080 ft 469 kts 260°
2026-04-29 16:38 46.74944 -68.56181 38070 ft 469 kts 260°
2026-04-29 16:38 46.74103 -68.65607 38069 ft 468 kts 259°
2026-04-29 16:39 46.73255 -68.75024 38057 ft 469 kts 259°
2026-04-29 16:39 46.72396 -68.84461 38054 ft 469 kts 259°
2026-04-29 16:40 46.71532 -68.93868 38043 ft 468 kts 259°
2026-04-29 16:40 46.70663 -69.03231 38043 ft 468 kts 259°
2026-04-29 16:41 46.69784 -69.12632 38047 ft 468 kts 259°
2026-04-29 16:41 46.68895 -69.22050 38045 ft 469 kts 259°
2026-04-29 16:42 46.67999 -69.31454 38040 ft 468 kts 260°
2026-04-29 16:42 46.67103 -69.40774 38033 ft 467 kts 260°
2026-04-29 16:43 46.66194 -69.50152 38024 ft 467 kts 259°
2026-04-29 16:43 46.65279 -69.59505 38024 ft 467 kts 259°
2026-04-29 16:44 46.64354 -69.68877 38005 ft 467 kts 259°
2026-04-29 16:44 46.63424 -69.78229 38019 ft 467 kts 259°
2026-04-29 16:45 46.62492 -69.87513 37989 ft 465 kts 260°
2026-04-29 16:45 46.61550 -69.96830 37991 ft 465 kts 260°
2026-04-29 16:46 46.60601 -70.06129 37979 ft 465 kts 259°
2026-04-29 16:46 46.59644 -70.15436 37980 ft 465 kts 259°
2026-04-29 16:47 46.58678 -70.24744 37991 ft 465 kts 260°
2026-04-29 16:47 46.57716 -70.33958 37970 ft 464 kts 259°
2026-04-29 16:48 46.56741 -70.43205 37969 ft 463 kts 259°
2026-04-29 16:48 46.55756 -70.52470 37970 ft 463 kts 259°
2026-04-29 16:49 46.54926 -70.60227 37958 ft 463 kts 259°
2026-04-29 16:49 46.53938 -70.69401 37982 ft 462 kts 259°
2026-04-29 16:50 46.52939 -70.78597 37958 ft 460 kts 259°
2026-04-29 16:50 46.51937 -70.87751 37958 ft 459 kts 259°
2026-04-29 16:51 46.50926 -70.96904 37954 ft 459 kts 259°
2026-04-29 16:51 46.49909 -71.06053 37958 ft 459 kts 259°
2026-04-29 16:52 46.48886 -71.15193 37957 ft 459 kts 259°
2026-04-29 16:52 46.47855 -71.24330 37957 ft 459 kts 259°
2026-04-29 16:53 46.46817 -71.33462 37949 ft 458 kts 259°
2026-04-29 16:53 46.45772 -71.42581 37960 ft 458 kts 259°
2026-04-29 16:54 46.44720 -71.51702 37957 ft 458 kts 259°
2026-04-29 16:54 46.43661 -71.60818 37960 ft 458 kts 259°
2026-04-29 16:55 46.42594 -71.69937 37957 ft 459 kts 259°
2026-04-29 16:55 46.41524 -71.79014 37957 ft 459 kts 259°
2026-04-29 16:56 46.40440 -71.88142 37957 ft 459 kts 259°
2026-04-29 16:56 46.39350 -71.97268 37955 ft 459 kts 259°
2026-04-29 16:57 46.38252 -72.06384 37957 ft 460 kts 259°
2026-04-29 16:57 46.37147 -72.15501 37957 ft 459 kts 259°
2026-04-29 16:58 46.36034 -72.24617 37955 ft 459 kts 259°
2026-04-29 16:58 46.34915 -72.33717 37952 ft 459 kts 259°
2026-04-29 16:59 46.33796 -72.42758 37951 ft 459 kts 259°
2026-04-29 16:59 46.32661 -72.51870 37953 ft 459 kts 259°
2026-04-29 17:00 46.31521 -72.60953 37955 ft 459 kts 259°
2026-04-29 17:00 46.30376 -72.70021 37954 ft 458 kts 259°
2026-04-29 17:01 46.29224 -72.79086 37954 ft 458 kts 259°
2026-04-29 17:01 46.28064 -72.88150 37951 ft 459 kts 259°
2026-04-29 17:02 46.26896 -72.97211 37949 ft 459 kts 258°
2026-04-29 17:02 46.25721 -73.06279 37945 ft 459 kts 258°
2026-04-29 17:03 46.24536 -73.15351 37949 ft 459 kts 258°
2026-04-29 17:03 46.23353 -73.24360 37942 ft 459 kts 258°
2026-04-29 17:04 46.22156 -73.33416 37938 ft 459 kts 258°
2026-04-29 17:04 46.20950 -73.42478 37938 ft 459 kts 258°
2026-04-29 17:05 46.19736 -73.51541 37945 ft 459 kts 258°
2026-04-29 17:05 46.18519 -73.60573 37939 ft 458 kts 258°
2026-04-29 17:06 46.17295 -73.69600 37936 ft 458 kts 258°
2026-04-29 17:06 46.16063 -73.78624 37936 ft 458 kts 258°
2026-04-29 17:07 46.14833 -73.87583 37946 ft 458 kts 258°
2026-04-29 17:07 46.13589 -73.96588 37933 ft 458 kts 258°
2026-04-29 17:08 46.12337 -74.05599 37934 ft 458 kts 258°
2026-04-29 17:08 46.11079 -74.14599 37935 ft 458 kts 258°
2026-04-29 17:09 46.09813 -74.23589 37929 ft 458 kts 257°
2026-04-29 17:09 46.08541 -74.32575 37926 ft 458 kts 257°
2026-04-29 17:10 46.07263 -74.41557 37924 ft 457 kts 257°
2026-04-29 17:10 46.05987 -74.50468 37923 ft 457 kts 257°
2026-04-29 17:11 46.04696 -74.59431 37916 ft 457 kts 257°
2026-04-29 17:11 46.03396 -74.68400 37914 ft 457 kts 257°
2026-04-29 17:12 46.02090 -74.77358 37908 ft 457 kts 257°
2026-04-29 17:12 46.00998 -74.84803 37989 ft 458 kts 257°
2026-04-29 17:13 46.00124 -74.90748 38178 ft 459 kts 257°
2026-04-29 17:13 45.99453 -74.95290 38105 ft 459 kts 257°
2026-04-29 17:13 45.98133 -75.04190 37907 ft 458 kts 257°
2026-04-29 17:14 45.96798 -75.13143 37807 ft 457 kts 257°
2026-04-29 17:14 45.95465 -75.22027 38500 ft 445 kts 257°
2026-04-29 17:15 45.94823 -75.26295 39209 ft 430 kts 257°
2026-04-29 17:15 45.94196 -75.30456 39669 ft 422 kts 257°
2026-04-29 17:15 45.93575 -75.34558 39866 ft 420 kts 257°
2026-04-29 17:15 45.92950 -75.38666 39908 ft 421 kts 257°
2026-04-29 17:16 45.91688 -75.46931 39904 ft 426 kts 257°
2026-04-29 17:16 45.90405 -75.55301 39911 ft 432 kts 257°
2026-04-29 17:17 45.89099 -75.63774 39913 ft 437 kts 257°
2026-04-29 17:17 45.87781 -75.72292 39910 ft 442 kts 257°
2026-04-29 17:18 45.86432 -75.80951 39924 ft 447 kts 257°
2026-04-29 17:18 45.85063 -75.89701 39914 ft 452 kts 256°
2026-04-29 17:19 45.83674 -75.98534 39926 ft 457 kts 256°
2026-04-29 17:19 45.82261 -76.07465 39920 ft 460 kts 256°
2026-04-29 17:20 45.80841 -76.16396 39925 ft 459 kts 256°
2026-04-29 17:20 45.79414 -76.25318 39927 ft 459 kts 256°
2026-04-29 17:21 45.77979 -76.34243 39930 ft 459 kts 256°
2026-04-29 17:21 45.76539 -76.43156 39940 ft 459 kts 256°
2026-04-29 17:22 45.75100 -76.52009 39940 ft 459 kts 256°
2026-04-29 17:22 45.73639 -76.60952 39948 ft 459 kts 256°
2026-04-29 17:23 45.72189 -76.69780 39950 ft 459 kts 256°
2026-04-29 17:23 45.70721 -76.78670 39955 ft 459 kts 256°
2026-04-29 17:24 45.69246 -76.87557 39950 ft 459 kts 256°
2026-04-29 17:24 45.67764 -76.96446 39956 ft 459 kts 256°
2026-04-29 17:25 45.66277 -77.05314 39956 ft 459 kts 256°
2026-04-29 17:25 45.64788 -77.14148 39958 ft 459 kts 256°
2026-04-29 17:26 45.63286 -77.23016 39952 ft 459 kts 255°
2026-04-29 17:26 45.61778 -77.31870 39956 ft 458 kts 255°
2026-04-29 17:27 45.60286 -77.40723 39949 ft 459 kts 257°
2026-04-29 17:27 45.59717 -77.49799 39951 ft 462 kts 271°
2026-04-29 17:28 45.60635 -77.58906 39948 ft 465 kts 279°